This is the latest recevied weather packets stored in our database for station/object KD4MBW. If no packets are shown the sender has not sent any weather packets the latest 10 day(s).
| Time | Temp. | Humidity | Pressure | Rain* | Wind** | Luminosity | Snow |
|---|---|---|---|---|---|---|---|
| 1778180400 | 24.44° C | 99% | 1013.7 hPa | 0 mm | - | 181 W/m² | - |
| 1778180096 | 24.44° C | 99% | 1013.6 hPa | 0 mm | - | 156 W/m² | - |
| 1778179793 | 24.44° C | 99% | 1014.2 hPa | 13.72 mm | - | 51 W/m² | - |
| 1778179491 | 24.44° C | 99% | 1014.1 hPa | 21.59 mm | - | 184 W/m² | - |
| 1778179189 | 26.11° C | 98% | 1014.3 hPa | 4.83 mm | - | 102 W/m² | - |
| 1778178885 | 26.67° C | 92% | 1014.6 hPa | 0 mm | - | 41 W/m² | - |
| 1778178582 | 26.67° C | 91% | 1014.4 hPa | 0 mm | - | 45 W/m² | - |
| 1778178278 | 27.22° C | 91% | 1014.5 hPa | 0 mm | - | 279 W/m² | - |
| 1778177974 | 27.22° C | 90% | 1014.5 hPa | 0 mm | - | 276 W/m² | - |
| 1778177671 | 26.67° C | 91% | 1014.4 hPa | 0 mm | - | 235 W/m² | - |
| 1778177368 | 26.67° C | 91% | 1014.8 hPa | 0 mm | - | 232 W/m² | - |
| 1778177065 | 27.22° C | 91% | 1014.8 hPa | 0 mm | - | 388 W/m² | - |
| 1778176760 | 26.67° C | 91% | 1014.6 hPa | 0 mm | - | 274 W/m² | - |
| 1778176457 | 26.67° C | 91% | 1014.6 hPa | 0 mm | - | 322 W/m² | - |
| 1778176155 | 26.67° C | 90% | 1014.8 hPa | 0 mm | - | 208 W/m² | - |
| 1778175852 | 26.67° C | 92% | 1015.1 hPa | 0 mm | - | 262 W/m² | - |
| 1778175550 | 26.67° C | 91% | 1015 hPa | 0 mm | - | 194 W/m² | - |
| 1778175246 | 26.67° C | 91% | 1015.1 hPa | 0 mm | - | 210 W/m² | - |
| 1778174943 | 26.67° C | 91% | 1015.1 hPa | 0 mm | - | 271 W/m² | - |
| 1778174640 | 27.22° C | 90% | 1015.3 hPa | 0 mm | - | 293 W/m² | - |
| 1778174335 | 26.67° C | 90% | 1015.3 hPa | 0 mm | - | 143 W/m² | - |
| 1778174033 | 27.22° C | 90% | 1015.4 hPa | 0 mm | - | 457 W/m² | - |
| 1778173730 | 26.67° C | 90% | 1015.5 hPa | 0 mm | - | 385 W/m² | - |
| 1778173426 | 26.67° C | 91% | 1015.4 hPa | 0 mm | - | 325 W/m² | - |
| 1778173122 | 26.11° C | 93% | 1015.8 hPa | 0 mm | - | 289 W/m² | - |
* Rain latest hour (hover to see other rain measurements)
** Current wind speed in m/s (hover to see current wind gust speed)